Location: Newark
(43.6486°N, 79.3853°W)
Time: 18:56:02
(UTC+00:00)

FALCON 9 DEB - Pass Details

Date: 08 April 2020
Orbit: 159 x 186 km, 53.0° (Epoch: 13 April)

Event Time Altitude Azimuth Distance (km) Brightness Sun altitude
Exits shadow 08:18:51 - 37° (NE) 1,310 ? -24.8°
Enters shadow 09:13:29 -70° 274° (W) 12,298 ? -16.6°
Maximum altitude 09:50:19 13° 21° (NNE) 708 ? -10.5°
